TimeMST,TemperatureF,Dew PointF,Humidity,Sea Level PressureIn,VisibilityMPH,Wind Direction,Wind SpeedMPH,Gust SpeedMPH,PrecipitationIn,Events,Conditions,WindDirDegrees,DateUTC
12:53 AM,19.9,19.0,96,30.58,0.5,NW,3.5,-,N/A,Fog,Light Freezing Fog,310,2013-12-14 07:53:00
1:13 AM,19.9,19.0,96,30.42,0.2,Calm,Calm,-,N/A,Fog,Light Freezing Fog,0,2013-12-14 08:13:00
1:34 AM,19.9,18.0,92,30.41,0.5,WSW,5.8,-,N/A,Fog,Light Freezing Fog,250,2013-12-14 08:34:00
1:53 AM,19.9,19.0,96,30.59,0.5,Calm,Calm,-,N/A,Fog,Light Freezing Fog,0,2013-12-14 08:53:00
2:53 AM,19.9,18.0,92,30.61,0.5,Calm,Calm,-,N/A,Fog,Light Freezing Fog,0,2013-12-14 09:53:00
3:11 AM,19.9,18.0,92,30.44,1.0,WNW,3.5,-,N/A,,Mist,290,2013-12-14 10:11:00
3:22 AM,19.9,18.0,92,30.44,0.8,NNW,3.5,-,N/A,,Overcast,330,2013-12-14 10:22:00
3:31 AM,19.9,18.0,92,30.44,1.0,Calm,Calm,-,N/A,,Overcast,0,2013-12-14 10:31:00
3:53 AM,19.9,18.0,92,30.61,1.0,Calm,Calm,-,N/A,,Overcast,0,2013-12-14 10:53:00
4:53 AM,21.0,19.0,92,30.62,1.2,Calm,Calm,-,N/A,,Overcast,0,2013-12-14 11:53:00
5:53 AM,21.0,19.0,92,30.61,1.8,Calm,Calm,-,N/A,,Overcast,0,2013-12-14 12:53:00
6:07 AM,21.0,19.9,96,30.46,2.0,Calm,Calm,-,N/A,,Overcast,0,2013-12-14 13:07:00
6:22 AM,21.0,19.0,92,30.46,2.0,Calm,Calm,-,N/A,,Overcast,0,2013-12-14 13:22:00
6:40 AM,21.0,19.9,96,30.46,1.8,Calm,Calm,-,N/A,,Overcast,0,2013-12-14 13:40:00
6:53 AM,21.0,19.9,96,30.61,2.0,Calm,Calm,-,N/A,,Overcast,0,2013-12-14 13:53:00
7:44 AM,21.9,19.9,92,30.47,1.8,Calm,Calm,-,N/A,,Overcast,0,2013-12-14 14:44:00
7:53 AM,21.9,19.0,89,30.63,1.0,Calm,Calm,-,N/A,,Overcast,0,2013-12-14 14:53:00
8:53 AM,21.9,19.9,92,30.64,1.0,Calm,Calm,-,N/A,,Overcast,0,2013-12-14 15:53:00
9:15 AM,21.9,21.0,96,30.48,0.8,Calm,Calm,-,N/A,,Overcast,0,2013-12-14 16:15:00
9:22 AM,21.9,21.0,96,30.49,1.0,Calm,Calm,-,N/A,,Overcast,0,2013-12-14 16:22:00
9:53 AM,23.0,19.9,88,30.65,1.2,Calm,Calm,-,N/A,,Overcast,0,2013-12-14 16:53:00
10:53 AM,23.0,21.9,96,30.66,1.5,Calm,Calm,-,N/A,,Overcast,0,2013-12-14 17:53:00
11:53 AM,23.0,21.9,96,30.64,1.2,Calm,Calm,-,N/A,,Overcast,0,2013-12-14 18:53:00
12:53 PM,23.0,21.0,92,30.63,4.0,SW,11.5,-,N/A,,Overcast,220,2013-12-14 19:53:00
1:27 PM,23.0,19.9,88,30.47,4.0,SW,10.4,-,N/A,,Overcast,230,2013-12-14 20:27:00
1:53 PM,21.9,19.9,92,30.65,2.0,SW,5.8,-,N/A,,Overcast,230,2013-12-14 20:53:00
2:02 PM,21.9,21.0,96,30.47,1.8,SW,8.1,-,N/A,,Overcast,230,2013-12-14 21:02:00
2:10 PM,21.9,19.9,92,30.47,2.0,SW,5.8,-,N/A,,Overcast,220,2013-12-14 21:10:00
2:26 PM,21.9,19.9,92,30.46,1.5,SW,4.6,-,N/A,,Overcast,230,2013-12-14 21:26:00
2:53 PM,21.9,21.0,96,30.61,1.0,SSW,5.8,-,N/A,,Overcast,200,2013-12-14 21:53:00
3:10 PM,23.0,21.0,92,30.48,0.8,West,5.8,-,N/A,,Overcast,260,2013-12-14 22:10:00
3:53 PM,21.9,19.9,92,30.64,0.2,SW,4.6,-,N/A,Fog,Light Freezing Fog,220,2013-12-14 22:53:00
4:53 PM,21.9,19.9,92,30.63,0.2,West,4.6,-,N/A,Fog,Light Freezing Fog,260,2013-12-14 23:53:00
5:23 PM,21.9,19.9,92,30.47,0.5,WSW,6.9,-,N/A,Fog,Light Freezing Fog,240,2013-12-15 00:23:00
5:53 PM,21.9,21.0,96,30.63,0.5,Calm,Calm,-,N/A,Fog,Light Freezing Fog,0,2013-12-15 00:53:00
6:11 PM,21.0,19.0,92,30.48,1.8,WSW,3.5,-,N/A,,Overcast,240,2013-12-15 01:11:00
6:17 PM,21.0,19.9,96,30.49,3.0,Calm,Calm,-,N/A,,Overcast,0,2013-12-15 01:17:00
6:29 PM,21.0,19.9,96,30.48,2.5,Calm,Calm,-,N/A,,Overcast,0,2013-12-15 01:29:00
6:40 PM,21.9,19.0,89,30.48,0.8,Calm,Calm,-,N/A,,Overcast,0,2013-12-15 01:40:00
6:53 PM,21.9,21.0,96,30.63,0.5,Calm,Calm,-,N/A,Fog,Light Freezing Fog,0,2013-12-15 01:53:00
7:19 PM,21.0,19.0,92,30.47,1.8,WSW,4.6,-,N/A,,Overcast,250,2013-12-15 02:19:00
7:27 PM,21.0,19.9,96,30.48,3.0,Calm,Calm,-,N/A,,Overcast,0,2013-12-15 02:27:00
7:39 PM,21.0,19.9,96,30.49,1.8,Calm,Calm,-,N/A,,Overcast,0,2013-12-15 02:39:00
7:53 PM,21.0,19.0,92,30.64,1.2,West,3.5,-,N/A,,Overcast,270,2013-12-15 02:53:00
8:23 PM,21.0,19.0,92,30.48,3.0,Calm,Calm,-,N/A,,Overcast,0,2013-12-15 03:23:00
8:38 PM,21.0,19.0,92,30.49,2.0,Calm,Calm,-,N/A,,Overcast,0,2013-12-15 03:38:00
8:53 PM,21.0,19.0,92,30.63,2.5,WSW,3.5,-,N/A,,Overcast,250,2013-12-15 03:53:00
9:07 PM,21.0,19.0,92,30.49,1.8,Calm,Calm,-,N/A,,Overcast,0,2013-12-15 04:07:00
9:17 PM,21.0,19.0,92,30.48,2.0,Calm,Calm,-,N/A,,Overcast,0,2013-12-15 04:17:00
9:35 PM,21.0,19.0,92,30.49,1.2,Calm,Calm,-,N/A,,Overcast,0,2013-12-15 04:35:00
9:53 PM,21.0,19.0,92,30.63,1.2,Calm,Calm,-,N/A,,Overcast,0,2013-12-15 04:53:00
10:09 PM,21.0,19.0,92,30.48,3.0,Calm,Calm,-,N/A,,Overcast,0,2013-12-15 05:09:00
10:53 PM,21.0,18.0,88,30.63,5.0,Calm,Calm,-,N/A,,Overcast,0,2013-12-15 05:53:00
11:13 PM,19.9,18.0,92,30.48,6.0,Calm,Calm,-,N/A,,Overcast,0,2013-12-15 06:13:00
11:53 PM,21.0,18.0,88,30.63,7.0,Calm,Calm,-,N/A,,Overcast,0,2013-12-15 06:53:00